Language selection

Weather shortcuts

Douglas Channel: Past 24 Hour Conditions

 

Prince Rupert Airport

07:00 AM PST 24 February 2024
Disclaimer

This table is a summary of hourly weather conditions for the past 24 hours.
Please note that these observations might not always be representative of weather conditions over their associated marine area.

Date / Time
(PST)
Wind(knots) Conditions Visibility(km) Pressure(kPa) Air tempC) Relative humidity(%) Dew pointC)
24 February 2024
7:00 SE 7 Light Rain 10 101.1 3 97 2
6:00 SE 5 Light Rain 16 101.2 3 96 2
5:00 SE 7 Light Rain 11 101.3 2 96 2
4:00 SE 10 Light Rain 16 101.3 3 91 1
3:00 ESE 9 Light Rain 16 101.4 3 88 1
2:00 ESE 7 Light Rain 16 101.5 2 91 1
1:00 ESE 8 Light Rain 16 101.6 3 92 1
0:00 SE 6 Light Rain 6 101.7 2 93 1
23 February 2024
23:00 ESE 5 Light Rain 16 101.8 3 84 1
22:00 SE 9 Cloudy 16 101.8 3 87 1
21:00 SE 6 Cloudy 16 101.8 3 86 1
20:00 WSW 2 Cloudy 16 101.9 5 73 0
19:00 W 3 Cloudy 16 102.0 5 71 0
18:00 W 7 Mostly Cloudy 16 102.0 5 71 0
17:00 WNW 6 Cloudy 16 102.0 6 62 -1
16:00 W 7 Mostly Cloudy 16 102.0 6 68 0
15:00 W 7 Mainly Sunny 16 102.0 6 68 1
14:00 WNW 8 gusts 15 Partly Cloudy 16 102.1 6 71 1
13:00 W 8 gusts 15 Mostly Cloudy 16 102.1 6 73 1
12:00 W 8 gusts 16 Cloudy 16 102.1 5 80 2
11:00 W 8 gusts 16 Cloudy 16 102.1 5 75 1
10:00 W 10 gusts 16 Light Rain 16 102.1 5 91 4
9:00 SW 6 gusts 24 Light Rain 13 102.1 4 97 4
8:00 SSE 12 gusts 24 Light Rain 8 102.0 4 97 3
7:00 SSE 11 gusts 21 Light Rain 6 102.0 3 96 3

Zoom-in to make a selection

Map of Pacific - North Coast marine weather areas Middle Nomad - 46004 South Nomad - 46036 Dixon Entrance Central - 46145 South Moresby - 46147 Nanakwa Shoal - 46181 North Hecate Strait - 46183 North Nomad - 46184 South Hecate Strait - 46185 West Sea Otter - 46204 West Dixon Entrance - 46205 East Dellwood - 46207 West Moresby - 46208 Sartine Island Cape St.James Kindakun Rocks Langara Island Masset Municipal Airport Rose Spit Sandspit Airport Bella Bella Airport Bella Coola Airport Bonilla Island Cathedral Point Cumshewa Island Grey Islet Holland Rock Lucy Islands Lightstation Prince Rupert Airport
Legend:
buoy Buoy
land station Land Station

Pacific - North Coast Area

Another Region

Date modified: